Liberal, Kansas, United States (67901)
Lat: 37.04N, Lon: 100.92W
Wx Zone: KSZ086
Local Info
Past Weather Observations for Sunday, April 20, 2014

NOTE: This archive is for the closest National Weather Service station to Liberal. Information may differ from the station used for current weather conditions.

Time Weather Temperature Dewpoint Humidity Pressure Winds Precip Visibility
23:55
Overcast
55°F / 13°C 50°F / 10°C 82% 30.04 in
(1017 mb)
S 11.5 mph
(S 19 kph)
- 9SM
23:35
Overcast
55°F / 13°C 48°F / 9°C 77% 30.04 in
(1017 mb)
S 10.4 mph
(S 17 kph)
- 10SM
23:15
Mostly Cloudy
54°F / 12°C 46°F / 8°C 77% 30.01 in
(1016 mb)
S 10.4 mph
(S 17 kph)
- 10SM
22:55
Clear
52°F / 11°C 45°F / 7°C 77% 30.01 in
(1016 mb)
S 8.1 mph
(S 13 kph)
- 10SM
22:35
Clear
52°F / 11°C 45°F / 7°C 77% 30.01 in
(1016 mb)
S 6.9 mph
(S 11 kph)
- 10SM
22:15
Clear
52°F / 11°C 45°F / 7°C 77% 30.01 in
(1016 mb)
SSE 6.9 mph
(SSE 11 kph)
- 10SM
21:55
Clear
54°F / 12°C 46°F / 8°C 77% 30.01 in
(1016 mb)
SSE 5.8 mph
(SSE 9 kph)
- 10SM
21:35
Clear
54°F / 12°C 46°F / 8°C 77% 30.01 in
(1016 mb)
S 6.9 mph
(S 11 kph)
- 10SM
21:15
Clear
55°F / 13°C 46°F / 8°C 72% 30.01 in
(1016 mb)
S 8.1 mph
(S 13 kph)
- 10SM
20:55
Clear
55°F / 13°C 45°F / 7°C 67% 29.98 in
(1015 mb)
S 9.2 mph
(S 15 kph)
- 10SM
20:35
Clear
55°F / 13°C 45°F / 7°C 67% 29.98 in
(1015 mb)
S 10.4 mph
(S 17 kph)
- 10SM
20:15
Clear
57°F / 14°C 45°F / 7°C 63% 29.98 in
(1015 mb)
SSE 10.4 mph
(SSE 17 kph)
- 10SM
19:55
Clear
57°F / 14°C 45°F / 7°C 63% 29.98 in
(1015 mb)
SSE 13.8 mph
(SSE 22 kph)
- 10SM
19:35
Clear
59°F / 15°C 45°F / 7°C 59% 29.98 in
(1015 mb)
S 12.7 mph
(S 20 kph)
- 10SM
19:15
Clear
61°F / 16°C 45°F / 7°C 55% 29.95 in
(1014 mb)
SSE 17.3 mph
(SSE 28 kph)
- 10SM
18:55
Partly Cloudy
64°F / 18°C 45°F / 7°C 49% 29.95 in
(1014 mb)
SSE 16.1 mph
(SSE 26 kph)
- 10SM
18:35
Clear
68°F / 20°C 46°F / 8°C 46% 29.95 in
(1014 mb)
S 16.1 mph
(S 26 kph)
- 10SM
18:15
Partly Cloudy
68°F / 20°C 46°F / 8°C 46% 29.95 in
(1014 mb)
S 13.8 mph
(S 22 kph)
- 10SM
17:55
Partly Cloudy
70°F / 21°C 48°F / 9°C 46% 29.95 in
(1014 mb)
S 15 mph
(S 24 kph)
- 10SM
17:35
Partly Cloudy
70°F / 21°C 48°F / 9°C 46% 29.92 in
(1013 mb)
S 11.5 mph
(S 19 kph)
- 10SM
17:15
Clear
68°F / 20°C 46°F / 8°C 46% 29.92 in
(1013 mb)
S 12.7 mph
(S 20 kph)
- 10SM
16:55
Clear
72°F / 22°C 48°F / 9°C 44% 29.92 in
(1013 mb)
S 15 mph
(S 24 kph)
- 10SM
16:35
Clear
70°F / 21°C 46°F / 8°C 43% 29.92 in
(1013 mb)
SW 11.5 mph
(SW 19 kph)
- 10SM
16:15
Clear
75°F / 24°C 48°F / 9°C 39% 29.92 in
(1013 mb)
SSE 23 mph
(SSE 37 kph)
- 10SM
15:55
Clear
77°F / 25°C 46°F / 8°C 34% 29.92 in
(1013 mb)
S 19.6 mph
(S 32 kph)
- 10SM
15:35
Clear
77°F / 25°C 46°F / 8°C 34% 29.92 in
(1013 mb)
S 21.9 mph
(S 35 kph)
- 10SM
15:15
Partly Cloudy
75°F / 24°C 46°F / 8°C 36% 29.92 in
(1013 mb)
S 19.6 mph
(S 32 kph)
- 10SM
14:55
Partly Cloudy
79°F / 26°C 48°F / 9°C 34% 29.92 in
(1013 mb)
S 25.3 mph
(S 41 kph)
- 10SM
14:35
Partly Cloudy
79°F / 26°C 46°F / 8°C 32% 29.95 in
(1014 mb)
S 18.4 mph
(S 30 kph)
- 10SM
14:15
Partly Cloudy
79°F / 26°C 48°F / 9°C 34% 29.95 in
(1014 mb)
S 16.1 mph
(S 26 kph)
- 10SM
13:55
Partly Cloudy
79°F / 26°C 48°F / 9°C 34% 29.95 in
(1014 mb)
S 18.4 mph
(S 30 kph)
- 10SM
13:35
Clear
79°F / 26°C 46°F / 8°C 32% 29.95 in
(1014 mb)
S 17.3 mph
(S 28 kph)
- 10SM
13:15
Clear
79°F / 26°C 46°F / 8°C 32% 29.98 in
(1015 mb)
S 17.3 mph
(S 28 kph)
- 10SM
12:55
Clear
79°F / 26°C 46°F / 8°C 32% 29.98 in
(1015 mb)
S 20.7 mph
(S 33 kph)
- 10SM
12:35
Clear
77°F / 25°C 46°F / 8°C 34% 29.98 in
(1015 mb)
SW 20.7 mph
(SW 33 kph)
- 10SM
12:15
Clear
75°F / 24°C 48°F / 9°C 39% 30.01 in
(1016 mb)
SSE 18.4 mph
(SSE 30 kph)
- 10SM
11:55
Clear
75°F / 24°C 48°F / 9°C 39% 30.01 in
(1016 mb)
SW 17.3 mph
(SW 28 kph)
- 10SM
11:35
Clear
73°F / 23°C 50°F / 10°C 44% 30.01 in
(1016 mb)
SW 19.6 mph
(SW 32 kph)
- 10SM
11:15
Clear
73°F / 23°C 50°F / 10°C 44% 30.04 in
(1017 mb)
S 18.4 mph
(S 30 kph)
- 10SM
10:55
Clear
72°F / 22°C 52°F / 11°C 50% 30.04 in
(1017 mb)
SSE 19.6 mph
(SSE 32 kph)
- 10SM
10:35
Clear
70°F / 21°C 52°F / 11°C 53% 30.04 in
(1017 mb)
SW 19.6 mph
(SW 32 kph)
- 10SM
10:15
Clear
68°F / 20°C 54°F / 12°C 60% 30.04 in
(1017 mb)
S 16.1 mph
(S 26 kph)
- 10SM
09:55
Clear
66°F / 19°C 54°F / 12°C 64% 30.04 in
(1017 mb)
S 15 mph
(S 24 kph)
- 10SM
09:35
Clear
66°F / 19°C 54°F / 12°C 64% 30.04 in
(1017 mb)
SSE 16.1 mph
(SSE 26 kph)
- 10SM
09:15
Clear
63°F / 17°C 54°F / 12°C 73% 30.04 in
(1017 mb)
SW 15 mph
(SW 24 kph)
- 10SM
08:55
Clear
61°F / 16°C 52°F / 11°C 72% 30.04 in
(1017 mb)
SW 10.4 mph
(SW 17 kph)
- 10SM
08:35
Clear
59°F / 15°C 52°F / 11°C 77% 30.04 in
(1017 mb)
SSE 12.7 mph
(SSE 20 kph)
- 10SM
08:15
Clear
57°F / 14°C 50°F / 10°C 77% 30.04 in
(1017 mb)
SSE 9.2 mph
(SSE 15 kph)
- 10SM
07:55
Clear
55°F / 13°C 48°F / 9°C 77% 30.04 in
(1017 mb)
SSE 5.8 mph
(SSE 9 kph)
- 10SM
07:35
Clear
54°F / 12°C 48°F / 9°C 82% 30.04 in
(1017 mb)
S 10.4 mph
(S 17 kph)
- 10SM
07:15
Clear
54°F / 12°C 48°F / 9°C 82% 30.04 in
(1017 mb)
S 13.8 mph
(S 22 kph)
- 10SM
06:55
Clear
52°F / 11°C 46°F / 8°C 82% 30.04 in
(1017 mb)
S 10.4 mph
(S 17 kph)
- 10SM
06:35
Clear
50°F / 10°C 45°F / 7°C 82% 30.04 in
(1017 mb)
S 8.1 mph
(S 13 kph)
- 10SM
06:15
Clear
48°F / 9°C 45°F / 7°C 87% 30.04 in
(1017 mb)
S 9.2 mph
(S 15 kph)
- 10SM
05:55
Clear
50°F / 10°C 45°F / 7°C 82% 30.04 in
(1017 mb)
S 6.9 mph
(S 11 kph)
- 10SM
05:35
Clear
52°F / 11°C 46°F / 8°C 82% 30.04 in
(1017 mb)
S 5.8 mph
(S 9 kph)
- 10SM
05:15
Clear
54°F / 12°C 46°F / 8°C 77% 30.01 in
(1016 mb)
S 6.9 mph
(S 11 kph)
- 10SM
04:55
Clear
54°F / 12°C 46°F / 8°C 77% 30.04 in
(1017 mb)
S 10.4 mph
(S 17 kph)
- 10SM
04:35
Clear
54°F / 12°C 48°F / 9°C 82% 30.04 in
(1017 mb)
S 8.1 mph
(S 13 kph)
- 10SM
04:15
Clear
54°F / 12°C 48°F / 9°C 82% 30.04 in
(1017 mb)
SSE 9.2 mph
(SSE 15 kph)
- 10SM
03:55
Clear
54°F / 12°C 48°F / 9°C 82% 30.04 in
(1017 mb)
SSE 11.5 mph
(SSE 19 kph)
- 10SM
03:35
Clear
54°F / 12°C 46°F / 8°C 77% 30.04 in
(1017 mb)
S 11.5 mph
(S 19 kph)
- 10SM
03:15
Clear
55°F / 13°C 46°F / 8°C 72% 30.04 in
(1017 mb)
S 12.7 mph
(S 20 kph)
- 10SM
02:55
Clear
54°F / 12°C 46°F / 8°C 77% 30.04 in
(1017 mb)
S 10.4 mph
(S 17 kph)
- 10SM
02:35
Clear
55°F / 13°C 48°F / 9°C 77% 30.04 in
(1017 mb)
S 9.2 mph
(S 15 kph)
- 10SM
02:15
Partly Cloudy
57°F / 14°C 48°F / 9°C 72% 30.04 in
(1017 mb)
S 11.5 mph
(S 19 kph)
- 10SM
01:55
Partly Cloudy
57°F / 14°C 48°F / 9°C 72% 30.04 in
(1017 mb)
S 11.5 mph
(S 19 kph)
- 10SM
01:35
Mostly Cloudy
57°F / 14°C 48°F / 9°C 72% 30.04 in
(1017 mb)
S 15 mph
(S 24 kph)
- 10SM
01:15
Partly Cloudy
55°F / 13°C 46°F / 8°C 72% 30.04 in
(1017 mb)
SSE 11.5 mph
(SSE 19 kph)
- 10SM
00:55
Clear
57°F / 14°C 48°F / 9°C 72% 30.04 in
(1017 mb)
S 6.9 mph
(S 11 kph)
- 10SM
00:35
Partly Cloudy
57°F / 14°C 48°F / 9°C 72% 30.06 in
(1018 mb)
SSE 9.2 mph
(SSE 15 kph)
- 10SM
00:15
Mostly Cloudy
59°F / 15°C 48°F / 9°C 68% 30.06 in
(1018 mb)
S 12.7 mph
(S 20 kph)
- 10SM
Time Weather Temperature Dewpoint Humidity Pressure Winds Precip Visibility


Weather for websites

WeatherForYou.com, LLC is not responsible for any damages or problems caused by this service. Current weather conditions are obtained from the closest station including government and personal stations which may have varying degrees of accuracy. Weather forecasts are derived from the NOAA NDFD. Like all things, this site belongs to Jesus Christ... He just trusts me to maintain it. If you have any questions or comments email webmaster@weatherforyou.com

Copyright © 2014, WeatherForYou.com LLC. All rights reserved.